Total_Precipitation_Accumulation
0.50 0.44 0.40 0.47 0.47 0.41 0.38 0.45 0.52 0.55 0.55 0.67 0.81 0.93 1.04 1.19 1.37 1.43 1.48 1.63 1.69 1.69 1.82 1.91 1.97 1.93 1.87 1.96 2.16 2.60 2.56 2.23 1.98 1.95 1.82 1.66 1.60 1.65 1.61 1.75 1.83 1.73 1.67
0.40 0.36 0.35 0.36 0.38 0.39 0.37 0.40 0.52 0.60 0.64 0.70 0.84 1.03 1.28 1.36 1.51 1.71 1.69 1.70 1.76 1.82 1.89 2.08 2.19 2.15 2.15 2.23 2.31 2.62 2.82 2.57 2.36 2.37 2.55 2.28 2.05 1.69 1.43 1.48 1.58 1.63 1.68
0.35 0.28 0.31 0.33 0.34 0.36 0.43 0.47 0.59 0.78 0.95 1.02 1.24 1.56 1.83 1.89 1.84 1.87 1.93 1.92 1.93 2.01 1.98 2.04 2.23 2.25 2.24 2.32 2.54 2.86 3.21 3.18 2.86 2.62 2.84 2.62 2.31 2.18 1.65 1.34 1.39 1.52 1.64
0.43 0.34 0.32 0.35 0.33 0.38 0.51 0.69 0.91 1.20 1.42 1.51 1.68 1.95 2.07 2.11 2.04 2.04 2.05 2.08 2.00 1.92 1.93 2.01 2.18 2.35 2.48 2.62 2.69 2.67 3.11 3.45 3.26 3.02 2.64 2.34 2.21 2.36 2.21 1.71 1.40 1.44 1.49
0.47 0.48 0.47 0.52 0.53 0.63 0.84 1.18 1.46 1.66 1.78 1.81 1.88 2.10 2.25 2.40 2.43 2.31 2.17 2.12 2.12 2.05 1.96 1.97 2.00 2.05 2.17 2.33 2.48 2.55 2.82 3.08 3.27 3.23 3.00 2.68 2.48 2.05 2.06 2.12 1.86 1.58 1.35
0.53 0.63 0.76 0.90 0.97 1.06 1.27 1.50 1.65 1.79 1.78 1.75 1.77 1.90 2.11 2.27 2.29 2.33 2.31 2.21 2.14 2.06 1.92 1.85 1.90 1.92 1.93 2.08 2.20 2.33 2.62 2.85 3.00 3.08 2.98 2.87 2.79 2.46 2.17 1.99 1.95 1.81 1.56
0.62 0.85 1.02 1.17 1.26 1.37 1.48 1.52 1.49 1.56 1.59 1.55 1.54 1.61 1.71 1.76 1.82 1.96 1.89 1.78 1.69 1.64 1.60 1.52 1.55 1.67 1.74 1.91 1.99 1.96 2.05 2.26 2.49 2.68 2.74 2.77 2.66 2.56 2.47 2.32 2.09 1.83 1.50
0.90 1.03 1.15 1.26 1.31 1.45 1.51 1.46 1.42 1.40 1.33 1.28 1.29 1.28 1.34 1.42 1.44 1.45 1.43 1.36 1.32 1.29 1.25 1.24 1.24 1.30 1.37 1.58 1.80 1.82 1.84 1.93 2.03 2.11 2.40 2.58 2.54 2.55 2.33 2.23 2.27 2.02 1.68
1.14 1.32 1.33 1.25 1.21 1.26 1.34 1.31 1.26 1.20 1.11 1.04 1.07 1.09 1.15 1.19 1.15 1.11 1.07 1.09 1.02 1.02 1.00 1.05 1.14 1.20 1.18 1.27 1.42 1.62 1.69 1.77 1.86 1.86 2.03 2.19 2.28 2.27 2.10 2.14 2.24 2.15 1.85
1.24 1.52 1.63 1.50 1.27 1.10 1.13 1.10 1.09 1.14 1.13 1.08 1.08 1.06 0.98 0.90 0.87 0.87 0.81 0.82 0.88 0.89 0.91 0.91 0.97 1.04 1.07 1.15 1.26 1.30 1.41 1.52 1.70 1.86 1.98 2.01 2.05 2.12 2.02 2.02 2.13 2.13 1.95
1.45 1.57 1.59 1.47 1.32 1.06 0.99 0.98 0.98 1.04 1.12 1.06 1.07 1.05 0.93 0.79 0.74 0.69 0.63 0.65 0.69 0.74 0.74 0.80 0.90 0.94 0.97 1.00 1.00 1.04 1.09 1.17 1.30 1.37 1.52 1.74 1.93 2.01 2.00 2.06 2.11 2.13 2.00
1.15 1.15 1.23 1.24 1.17 1.05 0.98 1.05 1.10 1.12 1.09 1.05 1.02 0.97 0.89 0.78 0.76 0.69 0.61 0.63 0.68 0.71 0.71 0.78 0.84 0.86 0.92 0.95 0.92 0.93 0.98 1.09 1.18 1.20 1.25 1.37 1.63 1.79 1.88 1.97 2.00 2.07 2.03
0.89 0.83 0.92 1.07 1.00 0.94 0.98 1.08 1.23 1.25 1.19 1.08 1.00 0.97 0.91 0.88 0.90 0.77 0.68 0.67 0.75 0.87 0.89 0.87 0.91 0.88 0.91 0.93 0.90 0.92 0.96 0.99 1.05 1.10 1.12 1.22 1.35 1.50 1.58 1.68 1.80 1.88 1.99
0.74 0.70 0.64 0.70 0.72 0.74 0.76 0.89 1.16 1.39 1.36 1.24 1.12 1.05 1.03 1.02 0.97 0.81 0.73 0.69 0.71 0.76 0.79 0.87 0.93 1.00 1.05 1.03 0.98 0.98 0.99 0.95 0.97 1.03 1.10 1.14 1.17 1.34 1.56 1.66 1.74 1.79 1.89
0.56 0.51 0.47 0.46 0.47 0.52 0.60 0.74 1.05 1.28 1.28 1.24 1.10 1.00 0.95 0.91 0.85 0.80 0.81 0.73 0.65 0.64 0.65 0.75 0.83 0.93 1.02 1.07 1.07 0.94 0.85 0.86 0.92 0.92 0.91 1.00 1.10 1.20 1.41 1.51 1.74 1.79 1.92
0.50 0.48 0.43 0.38 0.35 0.35 0.43 0.54 0.74 0.94 1.03 1.05 0.98 0.86 0.85 0.81 0.72 0.75 0.83 0.81 0.68 0.62 0.61 0.65 0.64 0.67 0.72 0.93 0.93 0.81 0.70 0.73 0.84 0.92 0.90 0.90 0.96 1.03 1.10 1.15 1.38 1.58 1.73
0.50 0.50 0.48 0.44 0.41 0.39 0.41 0.44 0.51 0.65 0.74 0.78 0.75 0.64 0.65 0.78 0.81 0.83 0.81 0.71 0.61 0.62 0.60 0.55 0.52 0.54 0.60 0.67 0.64 0.70 0.69 0.70 0.76 0.85 0.93 0.97 0.94 1.00 1.09 1.11 1.18 1.27 1.33
0.49 0.48 0.46 0.41 0.39 0.39 0.39 0.44 0.46 0.50 0.53 0.52 0.50 0.45 0.52 0.68 0.72 0.68 0.64 0.58 0.56 0.58 0.62 0.54 0.51 0.57 0.59 0.63 0.66 0.68 0.66 0.77 0.85 0.86 0.86 0.97 1.02 1.06 1.22 1.23 1.31 1.24 1.14
0.28 0.29 0.33 0.30 0.27 0.27 0.30 0.32 0.31 0.34 0.35 0.34 0.35 0.40 0.43 0.46 0.47 0.44 0.44 0.49 0.53 0.56 0.50 0.53 0.66 0.66 0.67 0.78 0.72 0.63 0.67 0.80 0.88 0.83 0.84 0.96 1.04 1.21 1.33 1.36 1.37 1.26 1.18
0.14 0.20 0.29 0.31 0.26 0.26 0.29 0.29 0.29 0.31 0.32 0.33 0.35 0.38 0.41 0.44 0.44 0.43 0.43 0.45 0.48 0.51 0.53 0.56 0.68 0.72 0.75 0.78 0.65 0.62 0.71 0.83 0.90 0.89 0.87 1.07 1.06 1.18 1.23 1.28 1.40 1.41 1.29
0.14 0.18 0.22 0.30 0.29 0.27 0.28 0.29 0.30 0.32 0.39 0.40 0.38 0.37 0.37 0.40 0.45 0.48 0.46 0.45 0.45 0.47 0.51 0.54 0.58 0.57 0.54 0.55 0.54 0.57 0.62 0.73 0.84 0.84 0.85 0.81 0.96 1.00 1.10 1.21 1.26 1.50 1.42
0.13 0.15 0.18 0.26 0.29 0.29 0.31 0.34 0.34 0.35 0.40 0.42 0.40 0.39 0.41 0.41 0.43 0.50 0.50 0.49 0.48 0.45 0.45 0.48 0.55 0.56 0.50 0.47 0.46 0.49 0.56 0.68 0.71 0.70 0.77 0.76 0.87 0.90 0.97 0.98 1.16 1.37 1.36
0.14 0.17 0.18 0.24 0.29 0.31 0.35 0.37 0.37 0.37 0.39 0.40 0.43 0.44 0.44 0.44 0.43 0.45 0.46 0.49 0.49 0.49 0.48 0.48 0.52 0.53 0.53 0.54 0.56 0.55 0.59 0.61 0.55 0.52 0.70 0.78 0.86 0.82 0.79 0.92 1.13 1.19 1.22
0.10 0.13 0.15 0.20 0.29 0.33 0.34 0.39 0.41 0.42 0.43 0.44 0.47 0.49 0.50 0.50 0.48 0.49 0.52 0.54 0.55 0.54 0.52 0.51 0.55 0.58 0.57 0.56 0.53 0.52 0.53 0.53 0.51 0.52 0.69 0.85 0.89 0.84 0.80 0.88 1.02 1.06 1.19
0.13 0.13 0.14 0.17 0.23 0.30 0.33 0.38 0.42 0.46 0.46 0.46 0.50 0.54 0.55 0.54 0.55 0.56 0.57 0.56 0.54 0.55 0.53 0.54 0.57 0.56 0.53 0.56 0.60 0.56 0.54 0.54 0.56 0.66 0.82 0.95 0.97 0.98 0.92 0.94 1.04 1.03 1.02
0.14 0.15 0.15 0.16 0.18 0.22 0.26 0.31 0.34 0.42 0.47 0.48 0.48 0.48 0.53 0.56 0.54 0.55 0.54 0.56 0.57 0.59 0.55 0.51 0.53 0.54 0.53 0.57 0.59 0.60 0.61 0.59 0.69 0.85 1.00 1.12 1.19 1.20 1.16 1.12 1.08 1.01 0.98